Погода в Ужгороде

Поиск расширенной информации на нашем сайте:

Полезная информация:

Новости сайта



02.01.2020
Опубликован Долгосрочный прогноз погоды по городам России и ближнего зарубежья на январь 2020 года.
Карты: Прогноз на январь и февраль 2020 года, Сравнение прогнозируемой аномалии приземной температуры воздуха на январь 2020 года по разным моделям.




Погода в Ужгороде - сегодня

Время (UTC), дата Ветер
(°,м/с) 
Видим.   Явления Облачность Т
(°С)
Тd
(°С)
f(%) Тe
(°С)
Pmin
(гПа)
dP
(гПа)
Po
(мм)
O2
(г/м3)
Тmin Tmax R s Состояние
почвы
00 19.01.20 тихо ()   0500 м  переохл. туман  ?/?  
-3.5 -4 96 -4  1027.3  0.7  759  310           
03 19.01.20 тихо ()   0500 м  переохл. туман  ?/?  
-3.5 -4 96 -4  1027.8  0.6  759  310           
06 19.01.20 тихо ()   0500 м  туман  ?/?  
-3.3 -4 95 -3  1028.5  0.7  760  310  -3.7         
09 19.01.20 тихо ()   0500 м  переохл. туман  ?/?  
-3.1 -2.7 100 -3  1030.3  1.8  761  311           
12 19.01.20 тихо ()   4000 м  дымка{туман}  10/10 300 м 
[Sc]
-2.4 -3.3 94 -2  1031  0.7  762  310           
15 19.01.20 тихо ()   4000 м  дымка  10/10 330 м 
[Sc]
-2.3 -3.3 93 -2  1032.4  1.4  763  310           
18 19.01.20 тихо ()   4000 м  дымка  10/10 300 м 
[Sc]
-2 -2.9 94 -2  1035  2.5  765  311    -1.7       
21 19.01.20 тихо ()   4000 м  дымка  10/10 540 м 
[Sc]
-1.9 -3 92 -2  1036.9  1.9  766  311           
00 20.01.20 тихо ()   2000 м  дымка  10/10 900 м 
[Sc]
-1.7 -2.8 92 -2  1039.3  2.3  768  312           
03 20.01.20 тихо ()   4000 м  дымка  10/10 1080 м 
[Sc]
-1.5 -2.3 94 -2  1040.6  1.3  769  312           
06 20.01.20 тихо ()   0500 м  туман  4/0 верхняя 
[Ci fib]
-3.6 -4.1 96 -4  1042.1  1.4  770  315  -3.9         
09 20.01.20 тихо ()   4000 м  дымка{туман}  3/0 верхняя 
[Ci fib]
-0.1 -1 94 -0  1043.8  1.9  771  311           
12 20.01.20 270 (З) 10 км  {туман}  9/9 1260 м 
[Sc]
+3 +0.1 81 +2  1044.2  0.6  772  308           
15 20.01.20 тихо ()   10 км    9/9 1050 м 
[Sc]
+1.6 -0 89 +2  1045.1  0.8  772  309           
18 20.01.20 тихо ()   4000 м  дымка  10/10 960 м 
[Sc]
+0.4 -1 90 1046.2  1.1  773  311    +3.2       
21 20.01.20 тихо ()   3700 м  дымка  10/10 900 м 
[Sc]
+0.4 -0.5 94 1046.5  0.3  773  311           
00 21.01.20 130 (ЮВ) 4000 м  дымка  10/10 840 м 
[Sc]
+0.5 -0.9 90 +1  1046.2  -0.3  773  311           
03 21.01.20 тихо ()   4000 м  дымка  10/10 840 м 
[Sc]
+0.3 -0.8 92 1045.7  -0.6  773  311           
06 21.01.20 140 (ЮВ) 4000 м  дымка  10/10 800 м 
[Sc]
+0.2 -0.9 92 -2  1044.8  -0.9  772  311  -0.2         
09 21.01.20 130 (ЮВ) 4000 м  дымка  10/10 750 м 
[Sc]
+0.6 -0.2 94 -2  1045.1  0.4  772  311           
12 21.01.20 130 (ЮВ) 4000 м  дымка  10/10 630 м 
[Sc]
+1.1 -0.9 86 1043.7  -1.4  771  310           
15 21.01.20 150 (ЮВ) 4000 м  дымка  10/10 480 м 
[Sc]
+0.9 -0.8 88 -1  1042.5  -1.2  770  310           
18 21.01.20 тихо ()   2000 м  дымка  10/10 300 м 
[Sc]
-0.9 -1.5 96 -1  1042.9  0.3  771  312    +1.3       
21 21.01.20 220 (ЮЗ) 1000 м  слаб. морось  10/10 120 м 
[St]
-1.6 -1.8 99 -3  1041.2  -1.8  769  312           
00 22.01.20 130 (ЮВ) 4000 м  дымка{морось}  10/10 240 м 
[St]
-1.6 -2.4 94 -3  1039.3  -1.9  768  312      0.0     
Время (UTC), дата Ветер
(°,м/с) 
Видим.   Явления Облачность Т
(°С)
Тd
(°С)
f(%) Тe
(°С)
Pmin
(гПа)
dP
(гПа)
Po
(мм)
O2
(г/м3)
Тmin Tmax R s Состояние
почвы

Для получения пояснительной информации подведите курсор к названию столбца.

ПОГОДА в Ужгороде - архив

Всё, что Вы хотите узнать о погоде в Ужгороде - удобно и подробно!

Выберите нужную дату (начиная с 1 января 2019* года) и нажмите кнопку "Найти".
Будут отображены архивные сводки погоды по пункту Ужгород, начиная с указанной даты.


Отображать данные в формате CSV (для использования в таблицах Excel)


Внимание! Наш архив погоды предназначен исключительно для личного некоммерческого использования в познавательных целях. Если Вам необходимы официальные справки о состоянии погоды (для производственных, юридических, коммерческих и т.п. целей), обращайтесь в органы Росгидромета.

*Примечание: данная дата относится к архиву по метеостанциям СССР (Россия, СНГ, Балтия).
Архив по метеостанциям Зарубежной Европы и Азии (кроме Китая) хранится 10 дней, по другим регионам земного шара (Китай, Африка, Америка, Австралия, Океания) - 1 день.

Ужгород - район местоположения метеостанции


Название, широта, долгота, высота метеостанции:
Ужгород 48.6°ш. 22.3°д. 124 м над ур. моря [Украина]

Дополнительная информация

В oтличие oт бoльшинства пoгoдных сайтoв мы публикуем пoдрoбную метеoинфoрмацию в детальнoм прoфессиoнальнoм фoрмате.

Характеристики температуры и влажнoсти вoздуха измеряются на высoте 2 м в тени вдали oт зданий и деревьев.
Скoрoсть ветра измеряется на высoте 10 м (на урoвне рoста челoвека скoрoсть ветра ниже в 1.5-2 раза). Если метеoстанция нахoдится в гoрoде или в лесу, тo скoрoсть ветра занижена на 2-4 м/с пo сравнению с oткрытым местoм. Скoрoсть ветра над акватoриями крупных рек и oзёр, а также на вершинах хoлмoв на 2-5 м/с выше, чем в oбычных услoвиях.
Атмoсфернoе давление в разных тoчках местнoсти мoжет значительнo oтличаться oт давления на метеoстанции, в зависимoсти oт услoвий рельефа (при пoдъёме на 10 м давление пoнижается примернo на 1 мм рт.ст.).